AirNav   Everest Fuels
 
 1480 users online  

6GA0 Stoney Point Airfield
Cumming, Georgia, USA

GOING TO CUMMING?


FAA INFORMATION EFFECTIVE 10 SEPTEMBER 2020

Location

FAA Identifier: 6GA0
Lat/Long: 34-07-57.3520N 084-11-57.7050W
34-07.955867N 084-11.961750W
34.1325978,-84.1993625
(estimated)
Elevation: 1150 ft. / 351 m (estimated)
Variation: 02W (1985)
From city: 5 miles SW of CUMMING, GA
Time zone: UTC -4 (UTC -5 during Standard Time)
Zip code: 30041

Airport Operations

Airport use: Private use. Permission required prior to landing
Activation date: 09/1979
Control tower: no
ARTCC: ATLANTA CENTER
FSS: MACON FLIGHT SERVICE STATION
Attendance: CONTINUOUS
Wind indicator: yes
Segmented circle: no
Lights: ACTVT MIRL RY 15/33 AND VASI RY 15/33 - 122.725
Beacon: white-green (lighted land airport)
ACTVT BEACON - 122.725

Airport Communications

WX AWOS-3PT at LZU (15 nm SE): 132.275 (770-339-7753)
WX AWOS-3 at CNI (15 nm NW): 119.825 (770-704-6235)
WX ASOS at PDK (16 nm S): 128.4 (770-457-1691)

Nearby radio navigation aids

VOR radial/distance  VOR name  Freq  Var
PDKr023/16.2PEACHTREE VOR/DME116.6005W
ATLr026/32.4ATLANTA VORTAC116.9005W

 
NDB name  Hdg/Dist  Freq  Var  ID
FLOWERY BRANCH257/15.236503WFKV ..-. -.- ...-
CHERO122/16.041505WDJD -.. .--- -..
BARROW COUNTY296/32.640405WBMW -... -- .--
MONROE319/33.439204WJNM .--- -. --
ALCOVY328/36.637003WVOF ...- --- ..-.

Airport Services

Runway Information

Runway 15/33

Dimensions: 2500 x 100 ft. / 762 x 30 m
Surface: turf
Runway edge lights: medium intensity
RUNWAY 15  RUNWAY 33
Traffic pattern: leftleft

Airport Ownership and Management from official FAA records

Ownership: Privately-owned
Owner: STONEY POINT HOMEOWNERS ASSOC.
2144 STONEY POINT RD
CUMMING, GA 30041
Phone 404-787-7472
Manager: JOHN BERNDSEN
2144 STONEY POINT RD
CUMMING, GA 30041
Phone 404-787-7472

Airport Operational Statistics

Aircraft based on the field: 24
Single engine airplanes: 20
Multi engine airplanes: 1
Gliders airplanes: 1
Ultralights: 2
    

Additional Remarks

HANG GLIDER ACTIVITIES INVOF ARPT.
FOR CD CTC ATLANTA APCH AT 678-364-6131.

Instrument Procedures

There are no published instrument procedures at 6GA0.

Some nearby airports with instrument procedures:

KLZU - Gwinnett County Airport-Briscoe Field (15 nm SE)
KCNI - Cherokee County Regional Airport (15 nm NW)
KPDK - Dekalb-Peachtree Airport (16 nm S)
KGVL - Lee Gilmer Memorial Airport (20 nm NE)
KMGE - Dobbins Air Reserve Base (20 nm SW)
 
Loc | Ops | Rwys | IFR | FBO | Links
Com | Nav | Svcs | Stats | Notes
Area around 6GA0 (Stoney Point Airfield)
 
Road maps at: MapQuest Bing Google
 
Aerial photo
WARNING: Photo may not be current or correct
Aerial photo of 6GA0 (Stoney Point Airfield)
Photo by AirNav, LLC
Photo taken 18-Oct-2010
looking south.

Do you have a better or more recent aerial photo of Stoney Point Airfield that you would like to share? If so, please send us your photo.

 
Sectional chart

 
Airport distance calculator
Flying to Stoney Point Airfield? Find the distance to fly.

From to 6GA0

Sunrise and sunset
Times for 29-Sep-2020
 Local
(UTC-4)
 Zulu
(UTC)
Morning civil twilight07:0711:07
Sunrise07:3211:32
Sunset19:2223:22
Evening civil twilight19:4723:47

Current date and time
Zulu (UTC)  29-Sep-2020 21:25:43
Local (UTC-4)  29-Sep-2020 17:25:43
 
METAR
KLZU 
15nm SE 
292050Z 27006KT 10SM BKN008 14/14 A2986
KCNI 
15nm NW 
292050Z AUTO 30012G18KT 10SM SCT016 SCT022 15/13 A2988 RMK AO2
KPDK 
16nm S 
292053Z 30008KT 10SM FEW012 SCT017 15/14 A2985 RMK AO2 RAB01E10 SLP105 P0000 60002 T01500139 58019
KGVL 
20nm NE 
292053Z AUTO 29008KT 10SM -RA OVC110 14/12 A2985 RMK AO2 RAB30 SLP101 P0000 60013 T01390122 56021
KMGE 
20nm SW 
292056Z 31009KT 10SM BKN016 BKN040 BKN090 BKN250 16/13 A2986 RMK AO2A SLP109 60004 T01560133 55015 $
KRYY 
21nm W 
292050Z 33007KT 300V010 10SM BKN017 BKN024 16/13 A2988 RMK AO2 SLP842 P0001 60002 T01560128 55016 $
KJZP 
23nm NW 
292055Z AUTO 35011G17KT 10SM BKN011 BKN016 14/12 A2990 RMK AO2 T01370119
KFTY 
26nm SW 
292053Z 33009KT 10SM FEW020 16/13 A2986 RMK AO2 SLP106 60004 T01610128 55019
KWDR 
28nm E 
292055Z AUTO 26004KT 10SM SCT011 BKN016 OVC120 14/13 A2988 RMK AO2
TAF
KPDK 
16nm S 
291725Z 2918/3018 32010KT 6SM -RA BKN012 OVC035 FM292200 32009KT P6SM BKN040 FM300300 29005KT P6SM SKC FM300900 28003KT P6SM SKC FM301500 29007KT P6SM SKC
NOTAMs
Click for the latest NOTAMs
NOTAMs are issued by the DoD/FAA and will open in a separate window not controlled by AirNav.

 

 
 

Would you like to see your business listed on this page?

 If your business provides an interesting product or service to pilots, flight crews, aircraft, or users of the Stoney Point Airfield, you should consider listing it here.  To start the listing process, click on the button below
 
Add a business
 

Other Pages about Stoney Point Airfield

www.sphoa.com
 
Update a link
 
Copyright © AirNav, LLC. All rights reserved. Privacy Policy  Contact